LogoCoinalyze
    Ad-Free Version Hauptseite Märkte Finanzierungsraten
    Futures-Daten
    • Aggregierte Daten (Coins)
    • Einzelne Charts
    • Globale Charts
    Preisalarme
    TA
    Bitcoin Ethereum BNB Ripple Tron ZCash Dogecoin Monero UNUS SED LEO Chainlink Cardano Stellar Lumens Bitcoin Cash Litecoin Hedera Cronos Polkadot Ethereum Classic Algorand Cosmos Quant VeChain Dash Bitcoin SV BitTorrent Terra Decred Tezos Iota The Graph THETA Decentraland NEO Chiliz MultiversX Golem Basic Attention Token Horizen Qtum 0x DigiByte Beam FTX Token RIF Token Holo FUNToken Zilliqa Ontology Nano aelf Enjin Coin Ravencoin Siacoin Mask Network Verge WINk Status Waves IoTeX iExec RLC Power Ledger Steem Kyber Network Crystal Lisk Ardor Ark IOST WOO Network WAX Storj Wanchain Icon Loopring Bitcoin Diamond AdEx Bitcoin Gold Augur OmiseGO NEM MonaCoin BitShares Ren V Systems Komodo Nuls Mithril SOLVE Maker Aion EOS Nebulas HedgeTrade Bread Fetch.ai TomoChain Polygon Fantom Waltonchain GXChain Bytom Metaverse ETP MaidSafeCoin QASH
    Bestellen nach:
    Mehr
    • API
    • Kerzenformationen
    • Spenden
    • Kontakt
    • Sitemap
    • Privacy Policy
    • Disclaimer
    • Theme:
    Deutsch
    • English
    • Français
    • Русский
    • Türkçe
    • Nederlands
    • Português (BR)
    • Español
    • 한국어
    • 简体中文
    • 日本語
     
    Anmelden / Registrieren
    Markets/ Pepe/ PEPE zu USD/ PEPEUSD Coinbase
    Trades
    WL
    Chat
    Stat
    Neuigkeiten
    ⦷
    AAA
    0.00000347 416000000.00000000 02:48:28
    0.00000347 15540046.00000000 02:47:56
    0.00000347 185387500.00000000 02:47:56
    0.00000347 215072454.00000000 02:47:45
    0.00000347 416000000.00000000 02:47:45
    0.00000347 30700000.00000000 02:47:45
    0.00000347 47198940.00000000 02:47:44
    0.00000347 30700000.00000000 02:47:35
    0.00000347 30700000.00000000 02:47:33
    0.00000347 47198940.00000000 02:47:32
    0.00000347 3490548.00000000 02:47:30
    0.00000347 154687500.00000000 02:47:30
    0.00000347 30700000.00000000 02:47:30
    0.00000347 47198940.00000000 02:47:30
    0.00000347 5370937.00000000 02:47:30
    0.00000347 2174517.00000000 02:45:11
    0.00000347 10200000.00000000 02:45:06
    0.00000347 148367700.00000000 02:45:06
    0.00000347 30700000.00000000 02:45:06
    0.00000347 30700000.00000000 02:45:00
    0.00000347 6586601.00000000 02:44:55
    0.00000347 441864.00000000 02:44:55
    0.00000347 30258136.00000000 02:44:55
    0.00000347 30700000.00000000 02:44:54
    0.00000347 47198940.00000000 02:44:54
    0.00000347 201783897.00000000 02:44:54
    0.00000347 30700000.00000000 02:44:53
    0.00000347 71326.00000000 02:43:45
    0.00000347 818818.00000000 02:43:25
    0.00000347 285303.00000000 02:43:07
    0.00000347 54755043.00000000 02:41:17
    0.00000347 182185800.00000000 02:41:17
    0.00000347 141714200.00000000 02:41:17
    0.00000347 30700000.00000000 02:41:17
    0.00000347 30700000.00000000 02:41:15
    0.00000347 30700000.00000000 02:40:58
    0.00000347 47198940.00000000 02:40:02
    0.00000347 16498940.00000000 02:39:13
    0.00000347 30700000.00000000 02:39:12
    0.00000347 2921861.00000000 02:39:06
    0.00000347 15083504.00000000 02:39:05
    0.00000347 166628493.00000000 02:39:05
    0.00000347 30700000.00000000 02:39:05
    0.00000347 278070272.00000000 02:39:05
    0.00000347 47198940.00000000 02:37:56
    0.00000347 416000000.00000000 02:37:56
    0.00000347 47198940.00000000 02:37:35
    0.00000347 154687500.00000000 02:37:35
    0.00000347 30700000.00000000 02:37:35
    0.00000347 54755043.00000000 02:37:35
    0.00000347 251882414.00000000 02:37:35
    0.00000347 17586.00000000 02:37:06
    0.00000347 30700000.00000000 02:36:59
    0.00000347 102700000.00000000 02:36:59
    0.00000347 30700000.00000000 02:36:55
    0.00000347 477817.00000000 02:36:32
    0.00000347 12973387.00000000 02:32:58
    0.00000347 8981873.00000000 02:32:58
    0.00000347 100414522.00000000 02:32:56
    0.00000347 159116056.00000000 02:32:50
    0.00000347 30700000.00000000 02:32:12
    0.00000347 30700000.00000000 02:32:12
    0.00000347 17417800.00000000 02:32:12
    0.00000347 47198940.00000000 02:32:11
    0.00000347 416000000.00000000 02:32:11
    0.00000347 48117810.00000000 02:31:38
    0.00000347 3470810.00000000 02:31:37
    0.00000347 16498940.00000000 02:31:37
    0.00000347 14201060.00000000 02:31:37
    0.00000347 33916750.00000000 02:31:37
    0.00000347 13282190.00000000 02:31:37
    0.00000347 17417810.00000000 02:31:37
    0.00000347 30700000.00000000 02:31:37
    0.00000347 30700000.00000000 02:31:35
    0.00000347 236649400.00000000 02:30:42
    0.00000347 30700000.00000000 02:30:42
    0.00000347 30700000.00000000 02:30:34
    0.00000347 47198940.00000000 02:30:27
    0.00000347 109382220.00000000 02:30:27
    0.00000347 416000000.00000000 02:30:27
    0.00000347 154687500.00000000 02:30:27
    0.00000347 54755043.00000000 02:30:27
    0.00000347 216138328.00000000 02:30:27
    0.00000347 42644823.00000000 02:30:27
    0.00000348 2759132.00000000 02:30:03
    0.00000348 14575.00000000 02:30:03
    0.00000347 135876642.00000000 02:29:25
    0.00000347 8798419.00000000 02:28:39
    0.00000347 416000000.00000000 02:28:39
    0.00000347 290773990.00000000 02:28:39
    0.00000347 154687500.00000000 02:28:39
    0.00000347 47198940.00000000 02:28:39
    0.00000347 306372964.00000000 02:28:39
    0.00000347 2781700.00000000 02:26:14
    0.00000347 27334841.00000000 02:26:09
    0.00000347 12098058.00000000 02:25:59
    0.00000347 95763748.00000000 02:25:28
    0.00000347 135024789.00000000 02:25:27
    0.00000347 290987641.00000000 02:25:24
    0.00000347 47198940.00000000 02:25:24
    Abmelden
    AAA
    Hilfe
    🙂 🤣 😎 🤗 😛 😉 😜 🤑 🤔 😑 😴 😕 🙃 😲 😇 🙁 😢 😬 😟 😠 🕺 🏃 💪 ✌ 👌 👍 👎 👏 👋 🤝 🍺 🍻 🐋 🐟 🦈 🗽 🚄 ✈ 🛑 🚀 🏦 🌚 ⭐ 🌞 ⚡ 🏆 💰 💲 🔨 ❓ ❗ 💯 🔶 🏁
    ☺
    Anmelden oder Registrieren zum Chatten
    24 Stunden
    Veränderung
    -1.98%
    Volumen
    602,268,501,784
    Hoch
    0.00000358
    Tief
    0.00000343
    7 Tage
    Veränderung
    -8.92%
    Volumen
    3,685,489,736,154
    Hoch
    0.00000401
    Tief
    0.00000337
    30 Tage
    Veränderung
    +19.24%
    Volumen
    19,852,052,284,874
    Hoch
    0.00000456
    Tief
    0.00000253
    Pepe price rallies 25% as whale demand and futures interest surge
    Key takeaways Pepe has gained 25% this week, including a combined 22% advance over the previous two days. Seven whale transactions worth more than $1 million each occurred Thursday, the highest...
    coinjournal.net
    Aug 21, 2026 08:41
    PEPE Supply on Exchanges Just Took a Massive Hit – What’s Next?
    A drop in PEPE exchange balances has added to bullish expectations despite muted trader interest.
    cryptopotato.com
    Aug 6, 2026 20:02
    PEPE Exchange Outflows Hit Nearly 2-Year High as Whales Accumulate
    Pepe (PEPE) recorded its largest single-day exchange outflow since November 2024, with 4.54 trillion tokens leaving trading platforms, signaling that holders are moving supply away from immediate...
    beincrypto.com
    Aug 6, 2026 04:57
    Meme Coin Based on White House Shooter Conspiracy Rallies 320%
    $HENRY surged 300% after a 2023 Pepe tweet appeared to name the White House shooter, fueling a viral time-travel meme. The post Meme Coin Based on White House Shooter Conspiracy Rallies 320%...
    beincrypto.com
    Apr 27, 2026 16:11
    PEPE surges 4% as market sentiment improves, eyes Key resistance breakout
    Key takeaways Pepe extends gains on Wednesday, stretching its rally from the 50-day EMA. Derivatives data show heightened retail activity as risk-on sentiment returns to the market. Pepe (PEPE) is...
    coinjournal.net
    Apr 22, 2026 11:44
    Why The PEPE Price Could Stage A 55X Rally To Reach New $0.0001 ATH
    The PEPE price has now started to edge back into bullish conversations after the recent inflows into the crypto market. The last time PEPE’s weekly chart printed the kind of structure now...
    newsbtc.com
    Apr 21, 2026 15:30
    Pepe (PEPE) surges 9%, drawing interest from whales
    Key takeaways PEPE is up 9% in the last 24 hours, making it one of the best performers among the top 50 cryptocurrencies by market cap. The rally comes amid renewed interest from whales and retail...
    coinjournal.net
    Apr 16, 2026 07:40
    Murad Says SPX6900 (SPX) Is Primed for a Rally — Is He Right This Time?
    Crypto influencer Murad Mahmudov claims SPX6900 (SPX) is stabilizing at the same market cap level where Dogecoin (DOGE) and Pepe (PEPE) consolidated before their explosive rallies. The...
    beincrypto.com
    Apr 5, 2026 21:36
    The Shiba Inu Of This Cycle: Analyst Shares Why It Is Better To Buy PEPE Now
    In the bull market cycle of 2021-2022, the Shiba Inu meme coin made waves in a way that changed the face of meme coins forever. This came after Dogecoin’s initial 36,000% rally, and Shiba Inu...
    newsbtc.com
    Apr 4, 2026 07:30
    PEPE Explodes by 18% Amid Altcoin Rally, BTC Tapped $74K: Market Watch
    The frog-themed meme coin is today's biggest gainer, followed by TAO, DOT, and BONK.
    cryptopotato.com
    Mar 16, 2026 10:56
    Should PEPE traders brace for volatility as short squeeze potential builds?
    The memecoin market has seen its collective market capitalization drop by 48% over the past year, and 6.9% over the past month, according to CoinMarketCap. According to Glassnode, the memecoin...
    ambcrypto.com
    Mar 7, 2026 18:00
    Geben Sie einfach das Kommando im Chat ein. Ersetzen Sie dabei nick1 durch den jeweiligen Nick.
    • /ignore nick1 Einen Chat-User ignorieren
    • /unignore nick1 Einen Chat-User nicht mehr ignorieren
    • /ignorelist Ignorierte Chat-User anzeigen